JBU2465 KBUF-KFLL

Flight info

Callsign JBU2465
Flight time 2h 34m
Altitude 36000
Route JHW RICCS Q103 SLOJO EFFAY Q83 JEVED Q97 PRMUS CUUDA3
Aircraft A320/M-SDE3FGHIRWY/LB1

Departure

Time 2026-05-04 12:28
Airport Buffalo Niagara International Airport (KBUF)

Arrival

Time 2026-05-04 15:02
Airport Fort Lauderdale Hollywood International Airport (KFLL)
Time Latitude Longitude Altitude Speed Heading
2026-05-04 11:35 42.93520 -78.73216 710 ft 0 kts 134°
2026-05-04 12:19 42.93526 -78.73224 714 ft 3 kts 134°
2026-05-04 12:19 42.93540 -78.73244 714 ft 3 kts 133°
2026-05-04 12:19 42.93551 -78.73268 712 ft 3 kts 87°
2026-05-04 12:20 42.93544 -78.73294 715 ft 3 kts 48°
2026-05-04 12:20 42.93536 -78.73306 717 ft 0 kts 44°
2026-05-04 12:22 42.93537 -78.73304 717 ft 1 kts 44°
2026-05-04 12:23 42.93546 -78.73293 715 ft 3 kts 44°
2026-05-04 12:23 42.93571 -78.73259 712 ft 7 kts 44°
2026-05-04 12:23 42.93629 -78.73230 715 ft 9 kts
2026-05-04 12:23 42.93684 -78.73215 718 ft 7 kts 21°
2026-05-04 12:24 42.93726 -78.73168 720 ft 9 kts 44°
2026-05-04 12:24 42.93784 -78.73091 717 ft 14 kts 44°
2026-05-04 12:24 42.93864 -78.72988 716 ft 16 kts 44°
2026-05-04 12:24 42.93948 -78.72876 716 ft 18 kts 44°
2026-05-04 12:25 42.94044 -78.72750 715 ft 17 kts 44°
2026-05-04 12:25 42.94130 -78.72638 717 ft 17 kts 44°
2026-05-04 12:25 42.94222 -78.72517 719 ft 18 kts 44°
2026-05-04 12:25 42.94311 -78.72400 722 ft 18 kts 44°
2026-05-04 12:26 42.94407 -78.72274 718 ft 19 kts 44°
2026-05-04 12:26 42.94507 -78.72143 717 ft 21 kts 44°
2026-05-04 12:26 42.94619 -78.71996 717 ft 23 kts 44°
2026-05-04 12:26 42.94715 -78.71871 717 ft 12 kts 44°
2026-05-04 12:27 42.94773 -78.71808 719 ft 9 kts 19°
2026-05-04 12:27 42.94820 -78.71837 720 ft 8 kts 311°
2026-05-04 12:27 42.94848 -78.71906 719 ft 9 kts 247°
2026-05-04 12:27 42.94761 -78.72017 714 ft 37 kts 222°
2026-05-04 12:28 42.94369 -78.72524 718 ft 113 kts 224°
2026-05-04 12:28 42.93671 -78.73456 832 ft 156 kts 223°
2026-05-04 12:28 42.92906 -78.74521 1598 ft 159 kts 224°
2026-05-04 12:28 42.92140 -78.75593 2461 ft 161 kts 227°
2026-05-04 12:29 42.91323 -78.76735 3016 ft 178 kts 229°
2026-05-04 12:29 42.90389 -78.77984 3298 ft 199 kts 224°
2026-05-04 12:29 42.89047 -78.78842 3603 ft 233 kts 198°
2026-05-04 12:29 42.87424 -78.79385 4116 ft 245 kts 203°
2026-05-04 12:30 42.85801 -78.80166 4841 ft 251 kts 206°
2026-05-04 12:30 42.84157 -78.81030 5603 ft 255 kts 206°
2026-05-04 12:30 42.82485 -78.81912 6403 ft 259 kts 206°
2026-05-04 12:30 42.80788 -78.82786 7172 ft 263 kts 205°
2026-05-04 12:31 42.79059 -78.83651 7913 ft 267 kts 205°
2026-05-04 12:31 42.77301 -78.84512 8658 ft 270 kts 205°
2026-05-04 12:31 42.75516 -78.85376 9409 ft 274 kts 205°
2026-05-04 12:31 42.73704 -78.86245 10097 ft 278 kts 205°
2026-05-04 12:32 42.71824 -78.87147 10369 ft 298 kts 205°
2026-05-04 12:32 42.67634 -78.89163 10707 ft 337 kts 204°
2026-05-04 12:32 42.65395 -78.90226 11228 ft 344 kts 204°
2026-05-04 12:33 42.63121 -78.91298 11826 ft 348 kts 204°
2026-05-04 12:33 42.60819 -78.92381 12417 ft 352 kts 204°
2026-05-04 12:33 42.58483 -78.93480 13025 ft 356 kts 204°
2026-05-04 12:33 42.56160 -78.94576 13622 ft 360 kts 204°
2026-05-04 12:34 42.53780 -78.95700 14144 ft 364 kts 204°
2026-05-04 12:34 42.51375 -78.96837 14658 ft 368 kts 204°
2026-05-04 12:34 42.48949 -78.97987 15161 ft 371 kts 204°
2026-05-04 12:34 42.46494 -78.99149 15657 ft 374 kts 204°
2026-05-04 12:35 42.44025 -79.00316 16163 ft 378 kts 204°
2026-05-04 12:35 42.41530 -79.01493 16687 ft 381 kts 204°
2026-05-04 12:35 42.39012 -79.02678 17213 ft 385 kts 204°
2026-05-04 12:35 42.36471 -79.03876 17749 ft 389 kts 204°
2026-05-04 12:36 42.33904 -79.05084 18255 ft 393 kts 204°
2026-05-04 12:36 42.31313 -79.06303 18732 ft 396 kts 204°
2026-05-04 12:36 42.28700 -79.07532 19215 ft 400 kts 204°
2026-05-04 12:36 42.26065 -79.08770 19708 ft 403 kts 204°
2026-05-04 12:37 42.23440 -79.10001 20200 ft 406 kts 204°
2026-05-04 12:37 42.20756 -79.11256 20666 ft 409 kts 204°
2026-05-04 12:37 42.18020 -79.12405 21129 ft 416 kts 198°
2026-05-04 12:37 42.15184 -79.13274 21563 ft 419 kts 198°
2026-05-04 12:38 42.12329 -79.14152 21974 ft 422 kts 198°
2026-05-04 12:38 42.09449 -79.15042 22372 ft 425 kts 198°
2026-05-04 12:38 42.06555 -79.15938 22772 ft 428 kts 198°
2026-05-04 12:38 42.03638 -79.16838 23172 ft 431 kts 198°
2026-05-04 12:39 42.00696 -79.17742 23549 ft 434 kts 198°
2026-05-04 12:39 41.97741 -79.18651 23874 ft 437 kts 198°
2026-05-04 12:39 41.94765 -79.19568 24210 ft 439 kts 198°
2026-05-04 12:39 41.91780 -79.20489 24542 ft 441 kts 198°
2026-05-04 12:40 41.88780 -79.21411 24834 ft 443 kts 198°
2026-05-04 12:40 41.85806 -79.22324 25138 ft 445 kts 198°
2026-05-04 12:40 41.82737 -79.23265 25458 ft 447 kts 198°
2026-05-04 12:40 41.79740 -79.24181 25769 ft 449 kts 198°
2026-05-04 12:41 41.76683 -79.25115 26088 ft 451 kts 198°
2026-05-04 12:41 41.73611 -79.26055 26402 ft 453 kts 198°
2026-05-04 12:41 41.70527 -79.26998 26711 ft 455 kts 198°
2026-05-04 12:41 41.67431 -79.27939 27009 ft 458 kts 197°
2026-05-04 12:42 41.64311 -79.28881 27301 ft 460 kts 197°
2026-05-04 12:42 41.61194 -79.29824 27724 ft 459 kts 197°
2026-05-04 12:42 41.58087 -79.30765 28161 ft 458 kts 197°
2026-05-04 12:42 41.54977 -79.31708 28597 ft 457 kts 197°
2026-05-04 12:43 41.51881 -79.32649 29029 ft 456 kts 198°
2026-05-04 12:43 41.48793 -79.33589 29450 ft 455 kts 197°
2026-05-04 12:43 41.45703 -79.34526 29859 ft 455 kts 197°
2026-05-04 12:43 41.42614 -79.35458 30229 ft 455 kts 197°
2026-05-04 12:44 41.39531 -79.36385 30592 ft 454 kts 197°
2026-05-04 12:44 41.36487 -79.37302 30951 ft 454 kts 197°
2026-05-04 12:44 41.33370 -79.38246 31325 ft 453 kts 198°
2026-05-04 12:44 41.30336 -79.39167 31692 ft 453 kts 198°
2026-05-04 12:45 41.27268 -79.40099 32050 ft 452 kts 197°
2026-05-04 12:45 41.24201 -79.41027 32437 ft 451 kts 197°
2026-05-04 12:45 41.21146 -79.41944 32818 ft 450 kts 198°
2026-05-04 12:45 41.18087 -79.42859 33188 ft 450 kts 198°
2026-05-04 12:46 41.15031 -79.43768 33555 ft 449 kts 198°
2026-05-04 12:46 41.11983 -79.44679 33904 ft 449 kts 198°
2026-05-04 12:46 41.08941 -79.45593 34195 ft 448 kts 198°
2026-05-04 12:46 41.05898 -79.46508 34469 ft 447 kts 198°
2026-05-04 12:47 41.02868 -79.47414 34794 ft 445 kts 198°
2026-05-04 12:47 40.99847 -79.48313 35086 ft 444 kts 198°
2026-05-04 12:47 40.96832 -79.49210 35362 ft 443 kts 198°
2026-05-04 12:47 40.93823 -79.50106 35632 ft 442 kts 198°
2026-05-04 12:48 40.90824 -79.50998 35863 ft 442 kts 198°
2026-05-04 12:48 40.84822 -79.52789 35946 ft 450 kts 199°
2026-05-04 12:49 40.78661 -79.54625 35945 ft 455 kts 198°
2026-05-04 12:49 40.72464 -79.56455 35951 ft 456 kts 198°
2026-05-04 12:50 40.66265 -79.58277 35959 ft 456 kts 198°
2026-05-04 12:50 40.60071 -79.60095 35963 ft 456 kts 198°
2026-05-04 12:51 40.53878 -79.61922 35966 ft 456 kts 198°
2026-05-04 12:51 40.47693 -79.63747 35974 ft 456 kts 198°
2026-05-04 12:52 40.41497 -79.65564 35963 ft 456 kts 198°
2026-05-04 12:52 40.35309 -79.67381 35975 ft 456 kts 198°
2026-05-04 12:53 40.29124 -79.69185 35960 ft 455 kts 198°
2026-05-04 12:53 40.22968 -79.70974 35964 ft 455 kts 198°
2026-05-04 12:54 40.16778 -79.72772 35969 ft 455 kts 198°
2026-05-04 12:54 40.10592 -79.74572 35975 ft 455 kts 198°
2026-05-04 12:55 40.04409 -79.76363 35979 ft 455 kts 198°
2026-05-04 12:55 39.98222 -79.78154 35971 ft 455 kts 199°
2026-05-04 12:56 39.92040 -79.79952 35986 ft 455 kts 198°
2026-05-04 12:56 39.85851 -79.81736 35997 ft 456 kts 198°
2026-05-04 12:57 39.79688 -79.83500 35980 ft 456 kts 198°
2026-05-04 12:57 39.73486 -79.85282 36003 ft 455 kts 199°
2026-05-04 12:58 39.67291 -79.87064 36012 ft 455 kts 199°
2026-05-04 12:58 39.61092 -79.88839 36015 ft 455 kts 198°
2026-05-04 12:59 39.54905 -79.90609 36001 ft 455 kts 199°
2026-05-04 12:59 39.48729 -79.92371 36011 ft 454 kts 199°
2026-05-04 13:00 39.42558 -79.94136 35990 ft 454 kts 198°
2026-05-04 13:00 39.37432 -79.95594 36033 ft 454 kts 198°
2026-05-04 13:01 39.30254 -79.97624 36025 ft 454 kts 199°
2026-05-04 13:01 39.25083 -79.99086 36019 ft 454 kts 199°
2026-05-04 13:02 39.18951 -80.00820 36028 ft 453 kts 199°
2026-05-04 13:02 39.12781 -80.02563 36011 ft 453 kts 199°
2026-05-04 13:03 39.06626 -80.04300 36032 ft 453 kts 199°
2026-05-04 13:03 39.00475 -80.06031 36038 ft 452 kts 199°
2026-05-04 13:04 38.94326 -80.07762 36044 ft 452 kts 199°
2026-05-04 13:04 38.88206 -80.09596 36025 ft 450 kts 201°
2026-05-04 13:05 38.82183 -80.11742 36037 ft 449 kts 203°
2026-05-04 13:05 38.76186 -80.13947 36046 ft 449 kts 202°
2026-05-04 13:06 38.70164 -80.16094 36034 ft 449 kts 202°
2026-05-04 13:06 38.64164 -80.18181 36029 ft 449 kts 202°
2026-05-04 13:07 38.58127 -80.20274 36040 ft 449 kts 202°
2026-05-04 13:07 38.52094 -80.22377 36050 ft 449 kts 202°
2026-05-04 13:08 38.46072 -80.24473 36031 ft 448 kts 202°
2026-05-04 13:08 38.40051 -80.26574 36045 ft 448 kts 202°
2026-05-04 13:09 38.34026 -80.28664 36064 ft 449 kts 202°
2026-05-04 13:09 38.28041 -80.30731 36068 ft 449 kts 202°
2026-05-04 13:10 38.22010 -80.32810 36033 ft 449 kts 202°
2026-05-04 13:10 38.15974 -80.34889 36047 ft 449 kts 202°
2026-05-04 13:11 38.09943 -80.36980 36057 ft 449 kts 202°
2026-05-04 13:11 38.03914 -80.39063 36062 ft 449 kts 202°
2026-05-04 13:12 37.97881 -80.41128 36069 ft 449 kts 202°
2026-05-04 13:12 37.91840 -80.43182 36104 ft 449 kts 202°
2026-05-04 13:13 37.85844 -80.45229 36107 ft 449 kts 202°
2026-05-04 13:13 37.79808 -80.47298 36080 ft 449 kts 202°
2026-05-04 13:14 37.73780 -80.49349 36091 ft 449 kts 202°
2026-05-04 13:14 37.67749 -80.51391 36093 ft 448 kts 202°
2026-05-04 13:15 37.61724 -80.53435 36088 ft 448 kts 202°
2026-05-04 13:15 37.55707 -80.55479 36051 ft 448 kts 203°
2026-05-04 13:16 37.49691 -80.57527 36056 ft 448 kts 203°
2026-05-04 13:16 37.43673 -80.59562 36065 ft 448 kts 203°
2026-05-04 13:17 37.37648 -80.61589 36064 ft 448 kts 203°
2026-05-04 13:17 37.31626 -80.63626 36039 ft 448 kts 203°
2026-05-04 13:18 37.25642 -80.65644 36098 ft 448 kts 203°
2026-05-04 13:18 37.19605 -80.67665 36115 ft 449 kts 203°
2026-05-04 13:19 37.13567 -80.69684 36120 ft 449 kts 203°
2026-05-04 13:19 37.07383 -80.71202 36097 ft 462 kts 191°
2026-05-04 13:20 37.00898 -80.71121 36110 ft 467 kts 187°
2026-05-04 13:20 36.94442 -80.70955 36108 ft 467 kts 187°
2026-05-04 13:21 36.87946 -80.70800 36128 ft 466 kts 187°
2026-05-04 13:21 36.81462 -80.70646 36129 ft 466 kts 187°
2026-05-04 13:22 36.74976 -80.70492 36139 ft 466 kts 187°
2026-05-04 13:22 36.68501 -80.70343 36136 ft 465 kts 187°
2026-05-04 13:23 36.62028 -80.70203 36083 ft 464 kts 187°
2026-05-04 13:23 36.55561 -80.70058 36055 ft 465 kts 187°
2026-05-04 13:24 36.49081 -80.69901 36069 ft 465 kts 187°
2026-05-04 13:24 36.42607 -80.69752 36075 ft 465 kts 188°
2026-05-04 13:25 36.32943 -80.69526 36075 ft 465 kts 187°
2026-05-04 13:25 36.26478 -80.69378 36089 ft 465 kts 187°
2026-05-04 13:26 36.20006 -80.69228 36104 ft 465 kts 187°
2026-05-04 13:26 36.13538 -80.69076 36036 ft 464 kts 187°
2026-05-04 13:27 36.07087 -80.68929 36067 ft 463 kts 187°
2026-05-04 13:27 36.00640 -80.68780 36086 ft 463 kts 187°
2026-05-04 13:28 35.94203 -80.68635 36093 ft 462 kts 187°
2026-05-04 13:28 35.87776 -80.68488 36075 ft 462 kts 187°
2026-05-04 13:29 35.81353 -80.68332 36118 ft 461 kts 187°
2026-05-04 13:29 35.74941 -80.68185 36128 ft 460 kts 187°
2026-05-04 13:30 35.68541 -80.68043 36129 ft 460 kts 187°
2026-05-04 13:30 35.62175 -80.67903 36144 ft 459 kts 187°
2026-05-04 13:31 35.55784 -80.67763 36159 ft 459 kts 187°
2026-05-04 13:31 35.49395 -80.67616 36169 ft 459 kts 187°
2026-05-04 13:32 35.43007 -80.67466 36170 ft 459 kts 187°
2026-05-04 13:32 35.36621 -80.67313 36143 ft 459 kts 187°
2026-05-04 13:33 35.30236 -80.67177 36160 ft 458 kts 187°
2026-05-04 13:33 35.23862 -80.67039 36161 ft 458 kts 187°
2026-05-04 13:34 35.17497 -80.66898 36158 ft 458 kts 187°
2026-05-04 13:34 35.11167 -80.66755 36125 ft 457 kts 187°
2026-05-04 13:35 35.01622 -80.66539 36140 ft 457 kts 187°
2026-05-04 13:36 34.95264 -80.66396 36145 ft 457 kts 187°
2026-05-04 13:36 34.88907 -80.66255 36146 ft 457 kts 187°
2026-05-04 13:37 34.82547 -80.66117 36123 ft 457 kts 187°
2026-05-04 13:37 34.76190 -80.65985 36130 ft 457 kts 187°
2026-05-04 13:38 34.69830 -80.65838 36136 ft 457 kts 187°
2026-05-04 13:38 34.63448 -80.65172 36138 ft 469 kts 174°
2026-05-04 13:39 34.57177 -80.62899 36104 ft 474 kts 169°
2026-05-04 13:39 34.50877 -80.60499 36114 ft 474 kts 169°
2026-05-04 13:40 34.44580 -80.58112 36134 ft 474 kts 169°
2026-05-04 13:40 34.38274 -80.55734 36144 ft 474 kts 170°
2026-05-04 13:41 34.31968 -80.53367 36118 ft 474 kts 170°
2026-05-04 13:41 34.25608 -80.52094 36138 ft 456 kts 187°
2026-05-04 13:42 34.19447 -80.52971 36141 ft 439 kts 202°
2026-05-04 13:42 34.16483 -80.53868 36149 ft 439 kts 202°
2026-05-04 13:42 34.10549 -80.55652 36088 ft 440 kts 201°
2026-05-04 13:43 34.04650 -80.57412 36108 ft 439 kts 201°
2026-05-04 13:43 33.98716 -80.59182 36122 ft 440 kts 201°
2026-05-04 13:44 33.92779 -80.60951 36130 ft 439 kts 201°
2026-05-04 13:44 33.86845 -80.62719 36134 ft 439 kts 201°
2026-05-04 13:45 33.80909 -80.64485 36122 ft 439 kts 201°
2026-05-04 13:45 33.74974 -80.66244 36136 ft 439 kts 201°
2026-05-04 13:46 33.69041 -80.68007 36157 ft 439 kts 201°
2026-05-04 13:46 33.63107 -80.69769 36166 ft 439 kts 201°
2026-05-04 13:47 33.57177 -80.71519 36145 ft 439 kts 201°
2026-05-04 13:47 33.51251 -80.73269 36164 ft 438 kts 201°
2026-05-04 13:48 33.45368 -80.75006 36176 ft 438 kts 201°
2026-05-04 13:48 33.39444 -80.76747 36175 ft 438 kts 201°
2026-05-04 13:49 33.33520 -80.78477 36144 ft 438 kts 201°
2026-05-04 13:49 33.27598 -80.80215 36157 ft 438 kts 201°
2026-05-04 13:50 33.21675 -80.81956 36164 ft 438 kts 201°
2026-05-04 13:50 33.15756 -80.83690 36165 ft 438 kts 201°
2026-05-04 13:51 33.10830 -80.85130 36167 ft 438 kts 201°
2026-05-04 13:51 33.03943 -80.87133 36179 ft 438 kts 201°
2026-05-04 13:52 32.96051 -80.89421 36182 ft 438 kts 201°
2026-05-04 13:53 32.90130 -80.91139 36176 ft 438 kts 201°
2026-05-04 13:53 32.84206 -80.92861 36174 ft 438 kts 201°
2026-05-04 13:54 32.75317 -80.95446 36162 ft 438 kts 201°
2026-05-04 13:55 32.66418 -80.98012 36168 ft 439 kts 201°
2026-05-04 13:55 32.57511 -81.00570 36176 ft 439 kts 201°
2026-05-04 13:56 32.51472 -81.01912 36154 ft 449 kts 190°
2026-05-04 13:57 32.42045 -81.02089 36169 ft 452 kts 188°
2026-05-04 13:58 32.29465 -81.02298 36151 ft 452 kts 188°
2026-05-04 13:58 32.20043 -81.02480 36166 ft 451 kts 188°
2026-05-04 13:59 32.13756 -81.02589 36163 ft 451 kts 188°
2026-05-04 14:00 32.04341 -81.02747 36119 ft 451 kts 188°
2026-05-04 14:00 31.94961 -81.02932 36115 ft 451 kts 189°
2026-05-04 14:01 31.88688 -81.03127 36131 ft 451 kts 189°
2026-05-04 14:02 31.79276 -81.03401 36149 ft 451 kts 189°
2026-05-04 14:02 31.73005 -81.03577 36126 ft 451 kts 189°
2026-05-04 14:03 31.66733 -81.03740 36130 ft 451 kts 189°
2026-05-04 14:03 31.60450 -81.03909 36137 ft 451 kts 189°
2026-05-04 14:04 31.51048 -81.04368 36157 ft 450 kts 191°
2026-05-04 14:04 31.44799 -81.04835 36129 ft 450 kts 192°
2026-05-04 14:05 31.35426 -81.05466 36148 ft 452 kts 191°
2026-05-04 14:06 31.29142 -81.05863 36153 ft 453 kts 191°
2026-05-04 14:06 31.22842 -81.06235 36164 ft 454 kts 190°
2026-05-04 14:07 31.16502 -81.06391 36129 ft 457 kts 189°
2026-05-04 14:07 31.10131 -81.06445 36142 ft 458 kts 189°
2026-05-04 14:08 31.03754 -81.06542 36155 ft 458 kts 189°
2026-05-04 14:08 30.97365 -81.06684 36163 ft 459 kts 189°
2026-05-04 14:09 30.87781 -81.06898 36139 ft 459 kts 190°
2026-05-04 14:10 30.78228 -81.07085 36159 ft 459 kts 190°
2026-05-04 14:10 30.71832 -81.07216 36167 ft 459 kts 190°
2026-05-04 14:11 30.65431 -81.07353 36155 ft 459 kts 190°
2026-05-04 14:11 30.55857 -81.07708 36123 ft 458 kts 193°
2026-05-04 14:12 30.49487 -81.08155 36129 ft 459 kts 193°
2026-05-04 14:13 30.39901 -81.08799 36150 ft 460 kts 192°
2026-05-04 14:13 30.33498 -81.09182 36159 ft 461 kts 192°
2026-05-04 14:14 30.27111 -81.09548 36162 ft 461 kts 192°
2026-05-04 14:14 30.17490 -81.10111 36172 ft 462 kts 192°
2026-05-04 14:15 30.04635 -81.10880 36139 ft 462 kts 193°
2026-05-04 14:16 29.95019 -81.11459 36159 ft 463 kts 193°
2026-05-04 14:17 29.85331 -81.11980 36166 ft 469 kts 188°
2026-05-04 14:17 29.78768 -81.10683 36131 ft 492 kts 169°
2026-05-04 14:18 29.75568 -81.09186 36129 ft 498 kts 165°
2026-05-04 14:19 29.62795 -81.02905 36146 ft 500 kts 165°
2026-05-04 14:19 29.56386 -80.99780 36155 ft 500 kts 165°
2026-05-04 14:20 29.50020 -80.96682 36107 ft 499 kts 165°
2026-05-04 14:20 29.43619 -80.93556 36139 ft 499 kts 165°
2026-05-04 14:21 29.34037 -80.88886 36160 ft 498 kts 165°
2026-05-04 14:21 29.27653 -80.85776 36160 ft 498 kts 165°
2026-05-04 14:22 29.21274 -80.82683 36111 ft 497 kts 165°
2026-05-04 14:22 29.14905 -80.79602 36152 ft 496 kts 165°
2026-05-04 14:23 29.05406 -80.75013 36158 ft 495 kts 165°
2026-05-04 14:24 28.99057 -80.71941 36153 ft 494 kts 165°
2026-05-04 14:24 28.92708 -80.68928 36148 ft 492 kts 166°
2026-05-04 14:25 28.86340 -80.66102 36125 ft 489 kts 167°
2026-05-04 14:25 28.76814 -80.61933 36128 ft 489 kts 167°
2026-05-04 14:26 28.70490 -80.59109 36123 ft 488 kts 166°
2026-05-04 14:26 28.64179 -80.56276 36115 ft 487 kts 166°
2026-05-04 14:27 28.57868 -80.53459 36083 ft 486 kts 166°
2026-05-04 14:27 28.51620 -80.50692 36107 ft 485 kts 167°
2026-05-04 14:28 28.45339 -80.47909 36113 ft 484 kts 167°
2026-05-04 14:28 28.39063 -80.45125 36113 ft 483 kts 166°
2026-05-04 14:29 28.26561 -80.39589 36076 ft 481 kts 167°
2026-05-04 14:30 28.20318 -80.36853 36096 ft 481 kts 167°
2026-05-04 14:31 28.10998 -80.32721 36112 ft 481 kts 167°
2026-05-04 14:32 27.98439 -80.27660 36085 ft 477 kts 170°
2026-05-04 14:32 27.92144 -80.25282 36098 ft 477 kts 169°
2026-05-04 14:33 27.85857 -80.22851 36109 ft 478 kts 169°
2026-05-04 14:33 27.79571 -80.20387 36111 ft 478 kts 169°
2026-05-04 14:33 27.76428 -80.19157 35955 ft 478 kts 169°
2026-05-04 14:34 27.73286 -80.17930 35711 ft 478 kts 169°
2026-05-04 14:34 27.70140 -80.16705 35394 ft 478 kts 169°
2026-05-04 14:34 27.66984 -80.15481 34555 ft 483 kts 169°
2026-05-04 14:34 27.63782 -80.14245 33605 ft 490 kts 168°
2026-05-04 14:35 27.60550 -80.12988 32698 ft 493 kts 168°
2026-05-04 14:35 27.57304 -80.11680 31733 ft 498 kts 167°
2026-05-04 14:35 27.54041 -80.10330 30785 ft 501 kts 167°
2026-05-04 14:35 27.50763 -80.08956 29967 ft 501 kts 167°
2026-05-04 14:36 27.47523 -80.07589 29334 ft 495 kts 166°
2026-05-04 14:36 27.44316 -80.06238 28682 ft 489 kts 166°
2026-05-04 14:36 27.41183 -80.04933 28027 ft 484 kts 167°
2026-05-04 14:36 27.38028 -80.03651 27380 ft 479 kts 168°
2026-05-04 14:37 27.34877 -80.02520 26743 ft 472 kts 171°
2026-05-04 14:37 27.31733 -80.01536 26114 ft 466 kts 172°
2026-05-04 14:37 27.28608 -80.00644 25498 ft 461 kts 173°
2026-05-04 14:37 27.25534 -79.99790 25294 ft 448 kts 173°
2026-05-04 14:38 27.23557 -79.99200 25197 ft 440 kts 171°
2026-05-04 14:38 27.20653 -79.98241 24634 ft 431 kts 169°
2026-05-04 14:38 27.17813 -79.97217 23872 ft 426 kts 168°
2026-05-04 14:38 27.15007 -79.96163 23274 ft 425 kts 168°
2026-05-04 14:39 27.12221 -79.95107 22871 ft 420 kts 168°
2026-05-04 14:39 27.09441 -79.94065 22281 ft 420 kts 168°
2026-05-04 14:39 27.06686 -79.93048 21923 ft 414 kts 169°
2026-05-04 14:40 27.01312 -79.90954 20592 ft 402 kts 167°
2026-05-04 14:40 26.98689 -79.89881 20088 ft 401 kts 167°
2026-05-04 14:40 26.96073 -79.88804 19570 ft 400 kts 167°
2026-05-04 14:40 26.93476 -79.87735 19163 ft 396 kts 167°
2026-05-04 14:41 26.90902 -79.86684 18681 ft 387 kts 167°
2026-05-04 14:41 26.88411 -79.85670 18083 ft 375 kts 167°
2026-05-04 14:41 26.83584 -79.83731 17035 ft 366 kts 167°
2026-05-04 14:42 26.78814 -79.81822 16087 ft 362 kts 167°
2026-05-04 14:42 26.76443 -79.80871 15644 ft 361 kts 167°
2026-05-04 14:42 26.74089 -79.79927 15186 ft 360 kts 167°
2026-05-04 14:43 26.71714 -79.79199 14835 ft 347 kts 178°
2026-05-04 14:43 26.69366 -79.79066 14374 ft 337 kts 191°
2026-05-04 14:43 26.67112 -79.79490 13884 ft 323 kts 202°
2026-05-04 14:43 26.65033 -79.80314 13399 ft 312 kts 206°
2026-05-04 14:44 26.63019 -79.81140 12974 ft 305 kts 206°
2026-05-04 14:44 26.61025 -79.81953 12590 ft 304 kts 205°
2026-05-04 14:44 26.59044 -79.82761 12200 ft 303 kts 205°
2026-05-04 14:44 26.57065 -79.83569 11809 ft 302 kts 205°
2026-05-04 14:45 26.55090 -79.84376 11422 ft 301 kts 205°
2026-05-04 14:45 26.53168 -79.85224 11224 ft 293 kts 207°
2026-05-04 14:45 26.51303 -79.86096 10768 ft 290 kts 207°
2026-05-04 14:45 26.49467 -79.86975 10337 ft 283 kts 207°
2026-05-04 14:46 26.47658 -79.87845 9941 ft 284 kts 207°
2026-05-04 14:46 26.45841 -79.88717 9526 ft 285 kts 207°
2026-05-04 14:46 26.44021 -79.89585 9158 ft 284 kts 206°
2026-05-04 14:46 26.42200 -79.90447 8792 ft 284 kts 206°
2026-05-04 14:47 26.40381 -79.91303 8425 ft 284 kts 206°
2026-05-04 14:47 26.38561 -79.92163 8084 ft 283 kts 208°
2026-05-04 14:47 26.36895 -79.93192 8014 ft 276 kts 213°
2026-05-04 14:47 26.35230 -79.94265 8016 ft 276 kts 213°
2026-05-04 14:48 26.33588 -79.95319 8018 ft 266 kts 213°
2026-05-04 14:48 26.32014 -79.96324 8015 ft 258 kts 213°
2026-05-04 14:48 26.30456 -79.97323 8021 ft 258 kts 213°
2026-05-04 14:48 26.28898 -79.98322 8021 ft 258 kts 213°
2026-05-04 14:49 26.27348 -79.99315 8016 ft 257 kts 213°
2026-05-04 14:49 26.25796 -80.00309 8019 ft 257 kts 213°
2026-05-04 14:49 26.24242 -80.01307 8021 ft 258 kts 213°
2026-05-04 14:49 26.22690 -80.02306 8021 ft 257 kts 214°
2026-05-04 14:50 26.21140 -80.03301 8015 ft 257 kts 213°
2026-05-04 14:50 26.19615 -80.04347 8017 ft 254 kts 221°
2026-05-04 14:50 26.18357 -80.05704 8019 ft 251 kts 234°
2026-05-04 14:50 26.17449 -80.07347 8019 ft 248 kts 248°
2026-05-04 14:51 26.16872 -80.09151 7904 ft 250 kts 253°
2026-05-04 14:51 26.16326 -80.10984 7632 ft 248 kts 253°
2026-05-04 14:51 26.15782 -80.12789 7408 ft 244 kts 252°
2026-05-04 14:51 26.15256 -80.14574 7174 ft 242 kts 257°
2026-05-04 14:52 26.15015 -80.16398 6963 ft 242 kts 269°
2026-05-04 14:52 26.15028 -80.18285 6742 ft 245 kts 271°
2026-05-04 14:52 26.15040 -80.20170 6541 ft 242 kts 270°
2026-05-04 14:52 26.15049 -80.22031 6297 ft 238 kts 270°
2026-05-04 14:53 26.15056 -80.23865 6042 ft 235 kts 270°
2026-05-04 14:53 26.15062 -80.25675 5794 ft 232 kts 271°
2026-05-04 14:53 26.15082 -80.27462 5544 ft 229 kts 272°
2026-05-04 14:53 26.15098 -80.29217 5289 ft 225 kts 272°
2026-05-04 14:54 26.15099 -80.30945 5057 ft 222 kts 271°
2026-05-04 14:54 26.15090 -80.32668 4813 ft 223 kts 271°
2026-05-04 14:54 26.15067 -80.34398 4562 ft 224 kts 271°
2026-05-04 14:54 26.15031 -80.36125 4312 ft 223 kts 270°
2026-05-04 14:55 26.14979 -80.37843 4084 ft 220 kts 271°
2026-05-04 14:55 26.14927 -80.39498 4024 ft 207 kts 270°
2026-05-04 14:55 26.14893 -80.41055 4034 ft 198 kts 272°
2026-05-04 14:55 26.14838 -80.42571 3998 ft 193 kts 271°
2026-05-04 14:56 26.14640 -80.44040 4002 ft 195 kts 252°
2026-05-04 14:56 26.13821 -80.45249 4015 ft 201 kts 218°
2026-05-04 14:56 26.12501 -80.45746 4004 ft 205 kts 181°
2026-05-04 14:56 26.11161 -80.45304 3999 ft 205 kts 143°
2026-05-04 14:57 26.10229 -80.44130 4007 ft 203 kts 122°
2026-05-04 14:57 26.09423 -80.42840 4009 ft 202 kts 123°
2026-05-04 14:57 26.08639 -80.41574 4005 ft 202 kts 122°
2026-05-04 14:57 26.07952 -80.40213 3955 ft 200 kts 105°
2026-05-04 14:58 26.07791 -80.38707 3762 ft 195 kts 86°
2026-05-04 14:58 26.07788 -80.37201 3534 ft 194 kts 86°
2026-05-04 14:58 26.07785 -80.35680 3286 ft 199 kts 87°
2026-05-04 14:58 26.07779 -80.34126 3017 ft 201 kts 87°
2026-05-04 14:59 26.07772 -80.32588 2760 ft 196 kts 87°
2026-05-04 14:59 26.07765 -80.31091 2505 ft 190 kts 85°
2026-05-04 14:59 26.07752 -80.28175 2021 ft 187 kts 86°
2026-05-04 15:00 26.07745 -80.26736 1777 ft 185 kts 86°
2026-05-04 15:00 26.07739 -80.25299 1533 ft 186 kts 86°
2026-05-04 15:00 26.07731 -80.23887 1284 ft 176 kts 85°
2026-05-04 15:01 26.07718 -80.21441 879 ft 151 kts 86°
2026-05-04 15:01 26.07713 -80.20279 705 ft 149 kts 86°
2026-05-04 15:01 26.07707 -80.19140 523 ft 144 kts 84°
2026-05-04 15:01 26.07703 -80.18022 313 ft 144 kts 85°
2026-05-04 15:02 26.07693 -80.16925 117 ft 140 kts 85°
2026-05-04 15:02 26.07692 -80.15878 19 ft 121 kts 91°
2026-05-04 15:02 26.07688 -80.15137 15 ft 71 kts 90°
2026-05-04 15:02 26.07683 -80.14819 19 ft 27 kts 95°
2026-05-04 15:03 26.07645 -80.14643 21 ft 17 kts 105°
2026-05-04 15:03 26.07567 -80.14617 17 ft 17 kts 238°
2026-05-04 15:03 26.07547 -80.14734 18 ft 14 kts 233°
2026-05-04 15:03 26.07458 -80.14801 17 ft 17 kts 226°
2026-05-04 15:04 26.07393 -80.14855 16 ft 12 kts 190°
2026-05-04 15:04 26.07309 -80.14854 16 ft 9 kts 180°
2026-05-04 15:04 26.07259 -80.14808 18 ft 11 kts 119°
2026-05-04 15:04 26.07232 -80.14750 16 ft 7 kts 117°
2026-05-04 15:05 26.07211 -80.14705 16 ft 3 kts 117°
2026-05-04 15:05 26.07191 -80.14692 16 ft 3 kts 165°
2026-05-04 15:05 26.07169 -80.14690 17 ft 4 kts 176°
2026-05-04 15:05 26.07151 -80.14689 16 ft 2 kts 176°
2026-05-04 15:06 26.07147 -80.14689 16 ft 0 kts 176°